Du Bois, PA

10:45 PM EDT on March 27, 2017 (GMT -0400)
Du Bois-Jefferson County

Weather History for KDUJ - June, 2014

Change the Weather History Date:

Thursday, June 19, 2014

  Actual Average Record
Temperature  
Mean Temperature 68 °F 66 °F  
Max Temperature 77 °F 76 °F 87 °F (2001)
Min Temperature 59 °F 55 °F 43 °F (2008)
Degree Days  
Heating Degree Days 0 2  
Month to date heating degree days 28 69  
Since 1 June heating degree days 28 69  
Since 1 July heating degree days 6829 6871  
Cooling Degree Days 3 3  
Month to date cooling degree days 50 34  
Year to date cooling degree days 99 57  
Since 1 June cooling degree days 50 34  
Growing Degree Days 18 (Base 50)    
Moisture  
Dew Point 63 °F    
Average Humidity 77    
Maximum Humidity 93    
Minimum Humidity 60    
Precipitation  
Precipitation 0.14 in 0.17 in 0.88 in (2007)
Month to date precipitation 6.26 3.07  
Sea Level Pressure  
Sea Level Pressure 30.08 in    
Wind  
Wind Speed 6 mph (NE)    
Max Wind Speed 12 mph    
Max Gust Speed 16 mph    
Visibility 7 miles    
Events Rain    
T = Trace of Precipitation, MM = Missing Value Source: NWS Daily Summary

Daily Weather History Graph

Daily Weather History Graph

Search for Another Location

Airport or City:

Trip Planner

Search our weather history database for the weather conditions in past years. The results will help you decide how hot, cold, wet, or windy it might be!

Date:

Astronomy

Jun. 19, 2014 Rise Set
Actual Time 5:42 AM EDT 8:51 PM EDT
Civil Twilight 5:08 AM EDT 9:25 PM EDT
Nautical Twilight 4:25 AM EDT 10:08 PM EDT
Astronomical Twilight 3:33 AM EDT 11:00 PM EDT
Moon 12:50 AM EDT (6/19) 1:15 PM EDT (6/19)
Length of Visible Light 16h 16m
Length of Day
15h 08m
Waning Gibbous, 51% of the Moon is Illuminated
Jun 19
Waning Gibbous
Jun 19
Last Quarter
Jun 27
New
Jul 5
First Quarter
Jul 12
Full

Hourly Weather History & Observations

Time (EDT) Temp. Dew Point Humidity Pressure Visibility Wind Dir Wind Speed Gust Speed Precip Events Conditions
12:56 AM 64.9 °F 63.0 °F 93% 30.01 in 10.0 mi SW 4.6 mph - 0.01 in   Partly Cloudy
1:33 AM 64.9 °F 63.0 °F 93% 30.04 in 6.0 mi WSW 5.8 mph - N/A   Scattered Clouds
1:45 AM 64.9 °F 63.0 °F 93% 30.03 in 4.0 mi WSW 4.6 mph - N/A   Mostly Cloudy
1:56 AM 64.9 °F 63.0 °F 93% 30.00 in 5.0 mi WSW 8.1 mph - N/A   Mostly Cloudy
2:56 AM 64.9 °F 63.0 °F 93% 29.99 in 7.0 mi West 5.8 mph - N/A   Overcast
3:56 AM 64.9 °F 63.0 °F 93% 30.01 in 9.0 mi West 4.6 mph - N/A   Overcast
4:56 AM - - N/A% 30.05 in - North - - N/A   Unknown
6:56 AM - - N/A% 30.09 in - North - - N/A   Unknown
7:56 AM - - N/A% 30.09 in - North - - N/A   Unknown
8:56 AM 66.0 °F 64.0 °F 93% 30.06 in 4.0 mi NE 3.5 mph - N/A   Mist
9:14 AM 66.0 °F 64.0 °F 93% 30.09 in 5.0 mi East 3.5 mph - 0.01 in Rain Light Rain
9:22 AM 66.0 °F 64.0 °F 93% 30.08 in 3.0 mi ENE 3.5 mph - 0.03 in Rain Light Rain
9:39 AM 66.9 °F 64.0 °F 90% 30.08 in 6.0 mi East 3.5 mph - 0.04 in Rain Light Rain
9:56 AM 66.9 °F 64.0 °F 90% 30.06 in 8.0 mi Calm Calm - 0.04 in Rain Light Rain
10:56 AM 68.0 °F 64.0 °F 87% 30.06 in 10.0 mi ENE 3.5 mph - 0.02 in   Overcast
11:56 AM 70.0 °F 64.9 °F 84% 30.06 in 10.0 mi ENE 4.6 mph - N/A   Overcast
12:03 PM 70.0 °F 64.9 °F 84% 30.09 in 10.0 mi ENE 4.6 mph - N/A   Overcast
12:56 PM 69.1 °F 64.0 °F 84% 30.07 in 10.0 mi ENE 6.9 mph - N/A   Overcast
1:13 PM 68.0 °F 64.9 °F 90% 30.10 in 2.5 mi NE 6.9 mph - 0.00 in Rain Light Rain
1:16 PM 68.0 °F 64.9 °F 90% 30.10 in 1.8 mi NNE 8.1 mph - 0.01 in Rain Light Rain
1:21 PM 66.9 °F 64.9 °F 93% 30.11 in 1.5 mi NNE 9.2 mph - 0.02 in Rain Light Rain
1:30 PM 66.9 °F 64.9 °F 93% 30.11 in 3.0 mi NNE 9.2 mph - 0.02 in Rain Light Rain
1:36 PM 66.9 °F 64.9 °F 93% 30.11 in 1.8 mi NNE 10.4 mph - 0.03 in Rain Light Rain
1:47 PM 66.9 °F 64.9 °F 93% 30.11 in 1.2 mi NE 9.2 mph - 0.06 in Rain Light Rain
1:56 PM 66.9 °F 64.9 °F 93% 30.08 in 1.8 mi NE 6.9 mph - 0.07 in Rain Light Rain
2:03 PM 68.0 °F 64.9 °F 90% 30.10 in 2.0 mi NE 8.1 mph - 0.00 in Rain Light Rain
2:10 PM 68.0 °F 64.9 °F 90% 30.10 in 3.0 mi NE 5.8 mph - 0.00 in   Overcast
2:17 PM 68.0 °F 64.9 °F 90% 30.10 in 2.0 mi NE 8.1 mph - 0.01 in   Overcast
2:30 PM 68.0 °F 64.0 °F 87% 30.10 in 7.0 mi NE 6.9 mph - 0.01 in   Overcast
2:56 PM 70.0 °F 64.9 °F 84% 30.08 in 10.0 mi NE 11.5 mph - 0.01 in   Overcast
3:31 PM 72.0 °F 64.9 °F 78% 30.11 in 10.0 mi ENE 8.1 mph - N/A   Overcast
3:56 PM 73.9 °F 64.0 °F 71% 30.07 in 10.0 mi NE 9.2 mph - N/A   Overcast
4:56 PM 73.9 °F 63.0 °F 68% 30.10 in 10.0 mi East 5.8 mph - N/A   Overcast
5:56 PM 75.9 °F 62.1 °F 62% 30.08 in 10.0 mi Variable 3.5 mph - N/A   Clear
6:56 PM 75.0 °F 61.0 °F 62% 30.07 in 10.0 mi North 9.2 mph - N/A   Clear
7:56 PM 72.0 °F 61.0 °F 68% 30.09 in 10.0 mi NNE 4.6 mph - N/A   Clear
8:56 PM 69.1 °F 59.0 °F 70% 30.09 in 10.0 mi NNE 4.6 mph - N/A   Partly Cloudy
9:56 PM 64.9 °F 55.9 °F 73% 30.10 in 10.0 mi NNE 6.9 mph - N/A   Mostly Cloudy
10:56 PM 62.1 °F 55.9 °F 80% 30.10 in 10.0 mi NNE 3.5 mph - N/A   Clear
11:56 PM 60.1 °F 54.0 °F 80% 30.11 in 10.0 mi Calm Calm - N/A   Clear